period_start,C,m1,H,J0,J1,J2,J3,J4,J5,JA,JB,JC,JD,JJ,JK,JN,#
2016-10-03 00:01:39,0.02,1.08,0.00,23.83,28.52,31.58,14.65,46.90,1028.35,2029.00,3031.97,2871.99,3192.88,599.85,601.05,45.66,0000 0000 0000 0000 000000
2016-10-03 00:06:40,0.04,1.08,0.00,23.88,28.52,31.64,14.73,47.04,1028.37,2029.00,3031.09,2871.66,3192.11,600.18,601.40,45.71,0000 0000 0000 0000 000000
2016-10-03 00:11:42,0.04,1.08,0.00,23.92,28.52,31.60,14.61,46.90,1028.45,2029.00,3030.31,2871.06,3191.63,600.20,601.30,45.76,0000 0000 0000 0000 000000
2016-10-03 00:16:43,0.02,1.09,0.00,23.91,28.54,31.62,14.61,47.00,1028.40,2029.00,3029.12,2870.96,3190.90,600.07,601.15,45.81,0000 0000 0000 0000 000000
2016-10-03 00:21:44,0.04,1.09,0.00,23.88,28.55,31.62,14.65,47.13,1028.38,2028.99,3028.34,2870.54,3190.12,599.95,601.05,45.86,0000 0000 0000 0000 000000
2016-10-03 00:26:45,0.03,1.09,0.00,23.91,28.55,31.59,14.70,47.08,1028.36,2028.99,3027.60,2870.03,3189.76,600.19,601.33,45.91,0000 0000 0000 0000 000000
2016-10-03 00:31:46,0.02,1.09,0.00,23.92,28.55,31.63,14.67,47.10,1028.37,2028.99,3026.71,2869.99,3189.03,600.26,601.32,45.96,0000 0000 0000 0000 000000
2016-10-03 00:36:48,0.02,1.09,0.00,23.90,28.55,31.62,14.54,47.06,1028.35,2028.99,3025.97,2869.89,3188.64,599.90,601.08,46.01,0000 0000 0000 0000 000000
2016-10-03 00:41:49,0.14,1.10,0.00,23.86,28.55,31.64,14.57,47.09,1028.38,2028.99,3023.56,2868.55,3187.01,599.73,600.89,46.07,0000 0000 0000 0000 000000
2016-10-03 00:46:51,0.08,1.10,0.00,23.76,28.55,31.59,14.66,47.23,1028.36,2028.99,3021.21,2867.36,3185.50,599.87,601.21,46.12,0000 0000 0000 0000 000000
2016-10-03 00:51:52,0.07,1.11,0.00,23.62,28.55,31.82,14.72,47.27,1028.39,2028.99,3019.43,2866.30,3184.20,600.15,601.88,46.17,0000 0000 0000 0000 000000
2016-10-03 00:56:53,0.06,1.11,0.00,23.44,28.54,31.77,14.68,47.21,1028.42,2028.99,3017.93,2865.74,3183.02,599.79,601.68,46.22,0000 0000 0000 0000 000000
2016-10-03 01:01:55,0.05,1.11,0.00,23.30,28.52,31.73,14.75,47.46,1028.45,2028.99,3016.30,2865.00,3182.01,599.82,602.22,46.27,0000 0000 0000 0000 000000
2016-10-03 01:06:56,0.07,1.12,0.00,23.22,28.50,31.75,14.75,47.36,1028.42,2028.99,3015.01,2864.26,3181.03,600.19,602.70,46.32,0000 0000 0000 0000 000000
2016-10-03 01:11:58,0.09,1.12,0.00,23.07,28.47,31.75,14.72,47.39,1028.41,2028.99,3013.16,2863.36,3179.69,599.94,602.71,46.37,0000 0000 0000 0000 000000
2016-10-03 01:16:59,0.11,1.13,0.00,22.96,28.45,31.73,14.70,47.55,1028.35,2029.01,3010.87,2862.01,3178.17,599.76,602.76,46.42,0000 0000 0000 0000 000000
2016-10-03 01:22:00,0.11,1.13,0.00,22.86,28.42,31.68,14.80,47.61,1028.35,2029.05,3008.50,2860.68,3176.46,599.78,602.95,46.47,0000 0000 0000 0000 000000
2016-10-03 01:27:01,0.05,1.14,0.00,22.72,28.40,31.66,14.84,47.65,1028.34,2029.15,3007.08,2860.01,3175.34,600.18,603.65,46.52,0000 0000 0000 0000 000000
2016-10-03 01:32:03,0.06,1.14,0.00,22.63,28.37,31.64,14.79,47.82,1028.32,2029.47,3006.12,2859.98,3174.99,599.68,603.40,46.57,0000 0000 0000 0000 000000
2016-10-03 01:37:04,0.03,1.14,0.00,22.63,28.34,31.61,14.76,47.59,1028.30,2029.80,3005.98,2859.98,3174.79,600.18,603.93,46.62,0000 0000 0000 0000 000000
2016-10-03 01:42:05,0.03,1.14,0.00,22.62,28.31,31.57,14.75,47.67,1028.29,2029.96,3005.48,2859.98,3174.29,599.75,603.45,46.67,0000 0000 0000 0000 000000
2016-10-03 01:47:07,0.01,1.14,0.00,22.57,28.29,31.55,14.91,47.65,1028.32,2029.98,3004.99,2859.98,3174.01,600.10,603.87,46.72,0000 0000 0000 0000 000000
2016-10-03 01:52:08,0.01,1.14,0.00,22.55,28.26,31.50,14.88,47.73,1028.25,2029.99,3004.60,2859.98,3173.97,600.23,604.05,46.77,0000 0000 0000 0000 000000
2016-10-03 01:57:09,0.01,1.14,0.00,22.51,28.24,31.42,14.83,47.66,1028.16,2029.99,3004.01,2859.91,3173.44,599.98,603.79,46.82,0000 0000 0000 0000 000000
2016-10-03 02:02:11,0.01,1.14,0.00,22.47,28.22,31.37,14.78,47.79,1028.06,2030.00,3003.73,2859.94,3173.04,599.89,603.64,46.87,0000 0000 0000 0000 000000
2016-10-03 02:07:12,0.01,1.15,0.00,22.53,28.20,31.27,14.74,47.84,1027.99,2030.02,3003.07,2859.97,3173.00,599.93,603.59,46.92,0000 0000 0000 0000 000000
2016-10-03 02:12:13,0.00,1.15,0.00,22.50,28.18,31.22,14.78,47.79,1027.96,2030.01,3002.96,2859.90,3172.95,600.13,603.89,46.97,0000 0000 0000 0000 000000
2016-10-03 02:17:15,0.04,1.15,0.00,22.48,28.17,31.23,14.78,47.83,1028.07,2030.04,3002.30,2859.75,3172.41,599.95,603.75,47.03,0000 0000 0000 0000 000000
2016-10-03 02:22:16,0.01,1.15,0.00,22.50,28.17,31.39,14.79,47.85,1028.27,2030.09,3002.00,2859.53,3172.02,599.97,603.76,47.08,0000 0000 0000 0000 000000
2016-10-03 02:27:17,0.05,1.15,0.00,22.54,28.15,31.40,14.76,47.66,1028.28,2030.24,3001.40,2859.19,3171.97,599.86,603.71,47.13,0000 0000 0000 0000 000000
2016-10-03 02:32:18,0.02,1.15,0.00,22.57,28.15,31.43,14.75,47.81,1028.32,2030.43,3000.96,2859.04,3171.37,599.87,603.57,47.18,0000 0000 0000 0000 000000
2016-10-03 02:37:19,0.04,1.15,0.00,22.59,28.15,31.44,14.77,47.77,1028.33,2030.40,3000.20,2859.00,3171.00,600.11,603.79,47.23,0000 0000 0000 0000 000000
2016-10-03 02:42:20,0.03,1.15,0.00,22.63,28.15,31.43,14.69,47.73,1028.32,2030.70,2999.80,2858.97,3170.57,600.17,603.81,47.28,0000 0000 0000 0000 000000
2016-10-03 02:47:21,0.04,1.16,0.00,22.64,28.15,31.44,14.70,47.77,1028.33,2030.61,2998.54,2858.20,3169.65,600.11,603.63,47.33,0000 0000 0000 0000 000000
2016-10-03 02:52:23,0.04,1.16,0.00,22.63,28.15,31.48,14.80,47.67,1028.32,2030.76,2997.68,2857.96,3168.99,599.79,603.44,47.38,0000 0000 0000 0000 000000
2016-10-03 02:57:24,0.04,1.16,0.00,22.64,28.15,31.52,14.74,47.70,1028.33,2030.57,2996.61,2857.27,3168.15,599.71,603.32,47.43,0000 0000 0000 0000 000000
2016-10-03 03:02:25,0.06,1.16,0.00,22.64,28.16,31.54,14.74,47.65,1028.33,2030.49,2995.27,2856.73,3167.20,599.83,603.34,47.48,0000 0000 0000 0000 000000
2016-10-03 03:07:27,0.03,1.17,0.00,22.67,28.17,31.57,14.70,47.80,1028.30,2030.32,2993.82,2855.99,3166.10,599.49,603.05,47.53,0000 0000 0000 0000 000000
2016-10-03 03:12:28,0.04,1.17,0.00,22.72,28.17,31.61,14.73,47.81,1028.32,2030.25,2993.02,2855.57,3165.49,599.96,603.39,47.58,0000 0000 0000 0000 000000
2016-10-03 03:17:30,0.03,1.17,0.00,22.69,28.18,31.64,14.86,47.84,1028.33,2030.29,2992.25,2855.04,3164.96,600.20,603.82,47.63,0000 0000 0000 0000 000000
2016-10-03 03:22:31,0.03,1.17,0.00,22.69,28.20,31.64,14.85,47.77,1028.33,2030.22,2991.36,2854.80,3164.11,600.49,603.92,47.68,0000 0000 0000 0000 000000
2016-10-03 03:27:32,0.03,1.17,0.00,22.72,28.20,31.68,14.79,47.78,1028.33,2030.11,2990.48,2854.11,3163.59,600.10,603.57,47.73,0000 0000 0000 0000 000000
2016-10-03 03:32:34,0.02,1.18,0.00,22.68,28.22,31.70,14.80,47.88,1028.32,2030.05,2989.39,2853.97,3162.76,600.06,603.54,47.78,0000 0000 0000 0000 000000
2016-10-03 03:37:35,0.03,1.18,0.00,22.69,28.23,31.72,14.83,48.01,1028.33,2030.02,2988.76,2853.54,3162.06,599.67,603.20,47.83,0000 0000 0000 0000 000000
2016-10-03 03:42:37,0.02,1.18,0.00,22.78,28.25,31.73,14.76,47.83,1028.33,2030.01,2988.02,2853.03,3161.65,599.92,603.23,47.88,0000 0000 0000 0000 000000
2016-10-03 03:47:38,0.02,1.18,0.00,22.83,28.26,31.75,14.72,47.73,1028.33,2030.01,2987.26,2853.00,3161.02,599.67,602.92,47.93,0000 0000 0000 0000 000000
2016-10-03 03:52:39,0.02,1.18,0.00,22.74,28.27,31.79,14.75,47.88,1028.33,2030.00,2986.75,2852.91,3160.66,599.87,603.34,47.98,0000 0000 0000 0000 000000
2016-10-03 03:57:40,0.03,1.18,0.00,22.80,28.29,31.81,14.74,47.67,1028.35,2030.00,2986.01,2852.43,3160.03,599.87,603.06,48.04,0000 0000 0000 0000 000000
2016-10-03 04:02:42,0.04,1.19,0.00,22.86,28.31,31.82,14.87,47.89,1028.35,2030.00,2984.98,2851.93,3159.48,599.91,603.14,48.09,0000 0000 0000 0000 000000
2016-10-03 04:07:43,0.06,1.19,0.00,22.82,28.32,31.85,14.82,47.68,1028.36,2030.00,2983.78,2851.15,3158.45,599.83,603.06,48.14,0000 0000 0000 0000 000000
2016-10-03 04:12:45,0.09,1.19,0.00,22.79,28.34,31.86,14.75,47.76,1028.39,2029.99,2981.82,2850.20,3157.01,599.81,603.27,48.19,0000 0000 0000 0000 000000
2016-10-03 04:17:46,0.05,1.20,0.00,22.87,28.35,31.87,14.84,47.77,1028.48,2029.99,2980.62,2849.53,3155.96,599.97,603.27,48.24,0000 0000 0000 0000 000000
2016-10-03 04:22:48,0.08,1.20,0.00,23.07,28.37,31.76,14.82,47.76,1028.53,2029.96,2978.88,2848.49,3154.77,600.38,603.13,48.29,0000 0000 0000 0000 000000
2016-10-03 04:27:49,0.09,1.21,0.00,23.47,28.40,31.59,14.71,47.52,1028.42,2029.93,2976.81,2847.24,3153.17,600.11,602.16,48.34,0000 0000 0000 0000 000000
2016-10-03 04:32:51,0.08,1.21,0.00,23.65,28.42,31.61,14.65,47.45,1028.69,2029.78,2974.69,2845.91,3151.55,599.99,601.78,48.39,0000 0000 0000 0000 000000
2016-10-03 04:37:52,0.07,1.21,0.00,23.63,28.45,31.65,14.71,47.53,1028.81,2029.53,2972.59,2844.65,3149.97,600.24,602.12,48.44,0000 0000 0000 0000 000000
2016-10-03 04:42:53,0.07,1.22,0.00,23.67,28.48,31.68,14.72,47.70,1028.75,2029.18,2970.61,2843.45,3148.43,600.13,601.91,48.49,0000 0000 0000 0000 000000
2016-10-03 04:47:55,0.08,1.22,0.00,23.69,28.51,31.70,14.63,47.51,1028.76,2029.05,2968.72,2842.21,3146.92,599.98,601.72,48.54,0000 0000 0000 0000 000000
2016-10-03 04:52:56,0.08,1.23,0.00,23.67,28.53,31.71,14.75,47.64,1028.76,2029.01,2966.88,2841.24,3145.56,600.02,601.82,48.59,0000 0000 0000 0000 000000
2016-10-03 04:57:57,0.07,1.23,0.00,23.68,28.56,31.73,14.66,47.57,1028.79,2029.00,2965.25,2840.26,3144.36,599.79,601.74,48.64,0000 0000 0000 0000 000000
2016-10-03 05:02:58,0.08,1.23,0.00,23.75,28.58,31.73,14.66,47.58,1028.79,2029.00,2963.46,2839.14,3142.95,599.90,601.57,48.69,0000 0000 0000 0000 000000
2016-10-03 05:08:00,0.09,1.24,0.00,23.59,28.60,31.71,14.66,47.52,1028.82,2029.00,2961.75,2838.25,3141.67,599.92,601.91,48.74,0000 0000 0000 0000 000000
2016-10-03 05:13:01,0.06,1.24,0.00,23.62,28.61,31.71,14.68,47.63,1028.80,2028.97,2960.23,2837.19,3140.41,599.89,601.84,48.79,0000 0000 0000 0000 000000
2016-10-03 05:18:02,0.05,1.24,0.00,23.66,28.62,31.72,14.65,47.48,1028.81,2028.96,2959.13,2836.74,3139.65,599.77,601.61,48.84,0000 0000 0000 0000 000000
2016-10-03 05:23:03,0.06,1.25,0.00,23.64,28.64,31.73,14.71,47.56,1028.81,2028.74,2957.40,2835.71,3138.35,600.12,602.05,48.90,0000 0000 0000 0000 000000
2016-10-03 05:28:04,0.03,1.25,0.00,23.45,28.65,31.99,14.73,47.51,1028.74,2028.32,2955.70,2834.71,3137.00,599.94,602.11,48.95,0000 0000 0000 0000 000000
2016-10-03 05:33:05,0.10,1.25,0.00,23.37,28.65,32.09,14.77,47.72,1028.77,2028.21,2953.67,2833.48,3135.44,600.10,602.63,49.00,0000 0000 0000 0000 000000
2016-10-03 05:38:07,0.03,1.26,0.00,23.29,28.65,32.02,14.71,47.64,1028.78,2028.17,2952.40,2832.85,3134.58,599.94,602.50,49.05,0000 0000 0000 0000 000000
2016-10-03 05:43:08,0.05,1.26,0.00,23.32,28.64,31.96,14.74,47.73,1028.82,2028.14,2951.30,2832.10,3133.79,600.12,602.73,49.10,0000 0000 0000 0000 000000
2016-10-03 05:48:09,0.03,1.26,0.00,23.30,28.64,31.95,14.71,47.63,1028.82,2028.12,2950.20,2831.69,3133.00,599.93,602.51,49.15,0000 0000 0000 0000 000000
2016-10-03 05:53:10,0.04,1.27,0.00,23.58,28.64,31.86,14.73,47.50,1028.82,2028.11,2949.52,2831.06,3132.33,599.91,601.89,49.20,0000 0000 0000 0000 000000
2016-10-03 05:58:11,0.00,1.27,0.00,23.79,28.65,31.70,14.70,47.58,1028.82,2028.06,2948.99,2831.01,3132.00,599.91,601.59,49.25,0000 0000 0000 0000 000000
2016-10-03 06:03:13,0.03,1.27,0.00,23.81,28.65,31.69,14.66,47.43,1028.82,2028.06,2948.22,2831.00,3131.56,599.98,601.49,49.30,0000 0000 0000 0000 000000
2016-10-03 06:08:14,0.01,1.27,0.00,23.85,28.66,31.72,14.70,47.58,1028.83,2028.04,2947.83,2830.92,3131.02,599.92,601.44,49.35,0000 0000 0000 0000 000000
2016-10-03 06:13:15,0.04,1.27,0.00,23.88,28.67,31.75,14.61,47.62,1028.83,2028.03,2947.04,2830.26,3130.55,599.68,601.14,49.40,0000 0000 0000 0000 000000
2016-10-03 06:18:17,0.02,1.27,0.00,23.87,28.68,31.77,14.65,47.63,1028.82,2028.03,2946.40,2830.02,3130.01,600.30,601.60,49.45,0000 0000 0000 0000 000000
2016-10-03 06:23:18,0.01,1.27,0.00,23.78,28.70,31.75,14.66,47.77,1028.82,2028.02,2945.85,2830.00,3129.72,600.20,601.80,49.50,0000 0000 0000 0000 000000
2016-10-03 06:28:19,0.02,1.27,0.00,23.78,28.70,31.75,14.73,47.71,1028.82,2028.01,2945.04,2829.98,3129.04,600.08,601.73,49.55,0000 0000 0000 0000 000000
2016-10-03 06:33:21,0.05,1.27,0.00,23.77,28.70,31.76,14.61,47.67,1028.83,2028.00,2944.34,2829.52,3128.64,600.02,601.53,49.60,0000 0000 0000 0000 000000
2016-10-03 06:38:22,0.03,1.28,0.00,23.80,28.71,31.74,14.66,47.60,1028.83,2028.00,2943.30,2829.01,3127.92,599.93,601.41,49.65,0000 0000 0000 0000 000000
2016-10-03 06:43:24,0.03,1.28,0.00,23.79,28.72,31.76,14.67,47.70,1028.83,2028.00,2942.57,2828.81,3127.16,600.01,601.61,49.70,0000 0000 0000 0000 000000
2016-10-03 06:48:25,0.05,1.28,0.00,23.74,28.72,31.77,14.69,47.73,1028.83,2028.00,2941.45,2828.07,3126.42,600.29,601.99,49.75,0000 0000 0000 0000 000000
2016-10-03 06:53:26,0.06,1.28,0.00,23.72,28.72,31.77,14.70,47.72,1028.83,2028.00,2940.27,2827.60,3125.59,599.62,601.37,49.80,0000 0000 0000 0000 000000
2016-10-03 06:58:28,0.08,1.29,0.00,23.71,28.72,31.78,14.71,47.74,1028.83,2028.00,2938.54,2826.58,3124.34,599.97,601.70,49.86,0000 0000 0000 0000 000000
2016-10-03 07:03:29,0.04,1.29,0.00,23.66,28.72,31.77,14.70,47.71,1028.83,2028.00,2937.19,2825.99,3123.25,599.90,601.76,49.91,0000 0000 0000 0000 000000
2016-10-03 07:08:31,0.06,1.29,0.00,23.61,28.71,31.79,14.73,47.77,1028.83,2028.00,2936.19,2825.38,3122.48,600.26,602.13,49.96,0000 0000 0000 0000 000000
2016-10-03 07:13:32,0.02,1.30,0.00,23.65,28.70,31.76,14.67,47.69,1028.84,2028.00,2935.24,2825.00,3121.97,599.58,601.59,50.01,0000 0000 0000 0000 000000
2016-10-03 07:18:33,0.04,1.30,0.00,23.75,28.70,31.73,14.73,47.72,1028.87,2028.00,2934.37,2824.79,3121.26,600.42,602.11,50.06,0000 0000 0000 0000 000000
2016-10-03 07:23:35,0.04,1.30,0.00,23.72,28.70,31.74,14.65,47.68,1028.88,2028.00,2933.41,2824.09,3120.71,599.78,601.56,50.11,0000 0000 0000 0000 000000
2016-10-03 07:28:36,0.01,1.30,0.00,23.71,28.70,31.74,14.72,47.67,1028.87,2028.00,2932.89,2824.00,3120.03,600.25,601.95,50.16,0000 0000 0000 0000 000000
2016-10-03 07:33:38,0.02,1.30,0.00,23.66,28.70,31.75,14.72,47.58,1028.96,2028.00,2932.10,2823.99,3119.84,600.04,601.99,50.21,0000 0000 0000 0000 000000
2016-10-03 07:38:39,0.03,1.30,0.00,23.62,28.70,31.75,14.70,47.80,1029.07,2028.00,2931.33,2823.84,3119.07,600.06,602.12,50.26,0000 0000 0000 0000 000000
2016-10-03 07:43:40,0.03,1.31,0.00,23.59,28.70,31.88,14.77,47.82,1029.23,2028.00,2930.78,2823.21,3118.88,599.94,602.24,50.31,0000 0000 0000 0000 000000
2016-10-03 07:48:42,0.02,1.31,0.00,23.62,28.68,31.78,14.74,47.80,1029.27,2028.00,2930.00,2823.02,3118.12,600.05,602.32,50.36,0000 0000 0000 0000 000000
2016-10-03 07:53:43,0.03,1.31,0.00,23.62,28.67,31.73,14.71,47.67,1029.30,2028.00,2929.00,2822.95,3117.61,600.18,602.36,50.41,0000 0000 0000 0000 000000
2016-10-03 07:58:44,0.04,1.31,0.00,23.59,28.67,31.81,14.72,47.92,1029.31,2028.00,2928.06,2822.29,3117.01,600.03,602.31,50.46,0000 0000 0000 0000 000000
2016-10-03 08:03:45,0.03,1.31,0.00,23.55,28.67,31.98,14.69,47.73,1029.31,2028.00,2927.35,2822.04,3116.56,599.82,602.18,50.51,0000 0000 0000 0000 000000
2016-10-03 08:08:47,0.02,1.31,0.00,23.72,28.67,31.76,14.68,47.64,1029.32,2028.00,2926.35,2821.99,3115.99,600.24,602.32,50.56,0000 0000 0000 0000 000000
2016-10-03 08:13:48,0.05,1.32,0.00,23.89,28.67,31.68,14.69,47.66,1029.37,2028.00,2925.58,2821.50,3115.24,599.97,601.63,50.61,0000 0000 0000 0000 000000
2016-10-03 08:18:50,0.13,1.32,0.00,23.80,28.67,31.69,14.63,47.42,1029.38,2028.00,2923.01,2820.13,3113.88,600.26,602.15,50.66,0000 0000 0000 0000 000000
2016-10-03 08:23:51,0.07,1.33,0.00,23.68,28.67,31.71,14.67,47.48,1029.37,2028.00,2920.98,2819.08,3112.36,599.83,602.01,50.71,0000 0000 0000 0000 000000
2016-10-03 08:28:52,0.02,1.33,0.00,23.77,28.67,31.67,14.72,47.44,1029.56,2028.00,2920.01,2818.97,3111.82,599.84,601.96,50.77,0000 0000 0000 0000 000000
2016-10-03 08:33:54,0.05,1.33,0.00,23.81,28.67,31.65,14.66,47.56,1029.71,2028.00,2919.00,2818.23,3111.04,599.90,601.99,50.82,0000 0000 0000 0000 000000
2016-10-03 08:38:55,0.03,1.33,0.00,23.93,28.68,31.73,14.67,47.52,1029.61,2028.00,2918.01,2818.00,3110.29,599.91,601.66,50.87,0000 0000 0000 0000 000000
2016-10-03 08:43:56,0.04,1.34,0.00,24.03,28.70,31.75,14.62,47.46,1029.54,2028.00,2917.07,2817.65,3109.78,599.86,601.28,50.92,0000 0000 0000 0000 000000
2016-10-03 08:48:57,0.03,1.34,0.00,24.07,28.70,31.77,14.70,47.46,1029.63,2028.00,2916.47,2817.17,3109.09,599.60,601.14,50.97,0000 0000 0000 0000 000000
2016-10-03 08:53:59,0.03,1.34,0.00,24.14,28.72,31.81,14.70,47.50,1029.75,2028.00,2915.52,2817.00,3108.61,600.18,601.61,51.02,0000 0000 0000 0000 000000
2016-10-03 08:59:00,0.01,1.34,0.00,24.19,28.73,31.82,14.70,47.52,1029.75,2027.99,2914.86,2816.96,3108.02,600.11,601.31,51.07,0000 0000 0000 0000 000000
2016-10-03 09:04:01,0.04,1.34,0.00,24.31,28.75,31.84,14.62,47.43,1029.75,2027.98,2914.04,2816.42,3107.60,600.18,601.23,51.12,0000 0000 0000 0000 000000
2016-10-03 09:09:03,0.02,1.34,0.00,24.38,28.76,31.85,14.61,47.59,1029.76,2027.99,2913.23,2816.02,3107.02,600.12,601.12,51.17,0000 0000 0000 0000 000000
2016-10-03 09:14:04,0.03,1.35,0.00,24.39,28.77,31.87,14.67,47.73,1029.78,2027.98,2912.24,2815.99,3106.39,600.42,601.38,51.22,0000 0000 0000 0000 000000
2016-10-03 09:19:05,0.04,1.35,0.00,24.43,28.80,31.87,14.64,47.62,1029.80,2027.98,2911.44,2815.64,3105.92,600.04,600.88,51.27,0000 0000 0000 0000 000000
2016-10-03 09:24:07,0.04,1.35,0.00,24.46,28.80,31.87,14.63,47.59,1029.80,2027.96,2910.52,2815.05,3105.15,599.99,600.83,51.32,0000 0000 0000 0000 000000
2016-10-03 09:29:08,0.00,1.35,0.00,24.48,28.82,31.90,14.59,47.65,1029.80,2027.94,2909.93,2815.00,3104.94,599.99,600.86,51.37,0000 0000 0000 0000 000000
2016-10-03 09:34:09,0.02,1.35,0.00,24.49,28.82,31.90,14.63,47.52,1029.80,2027.89,2909.09,2814.92,3104.14,600.03,600.80,51.42,0000 0000 0000 0000 000000
2016-10-03 09:39:11,0.04,1.35,0.00,24.49,28.84,31.91,14.62,47.58,1029.80,2027.76,2908.22,2814.19,3103.57,599.94,600.56,51.47,0000 0000 0000 0000 000000
2016-10-03 09:44:12,0.03,1.35,0.00,24.49,28.85,31.92,14.60,47.60,1029.80,2027.71,2907.60,2814.00,3103.02,600.13,600.97,51.52,0000 0000 0000 0000 000000
2016-10-03 09:49:13,-0.01,1.35,0.00,24.51,28.85,31.90,14.63,47.47,1029.80,2027.33,2906.58,2813.79,3102.41,600.06,600.80,51.57,0000 0000 0000 0000 000000
2016-10-03 09:54:14,0.02,1.36,0.00,24.51,28.87,31.88,14.60,47.50,1029.80,2027.15,2905.95,2813.17,3102.00,599.75,600.48,51.62,0000 0000 0000 0000 000000
2016-10-03 09:59:16,0.03,1.36,0.00,24.51,28.87,31.91,14.69,47.73,1029.80,2027.14,2905.19,2813.03,3101.67,600.08,600.81,51.68,0000 0000 0000 0000 000000
2016-10-03 10:04:17,0.01,1.36,0.00,24.52,28.87,31.94,14.63,47.58,1029.80,2027.08,2904.53,2813.00,3101.01,599.96,600.66,51.73,0000 0000 0000 0000 000000
2016-10-03 10:09:18,0.02,1.36,0.00,24.54,28.87,31.94,14.68,47.63,1029.80,2027.08,2903.82,2812.93,3100.51,599.90,600.53,51.78,0000 0000 0000 0000 000000
2016-10-03 10:14:19,0.04,1.36,0.00,24.51,28.87,31.89,14.65,47.70,1029.81,2027.03,2903.02,2812.25,3100.01,599.98,600.72,51.83,0000 0000 0000 0000 000000
2016-10-03 10:19:21,0.03,1.36,0.00,24.55,28.87,31.89,14.57,47.49,1029.81,2027.04,2902.00,2812.00,3099.30,599.88,600.52,51.88,0000 0000 0000 0000 000000
2016-10-03 10:24:22,0.02,1.36,0.00,24.54,28.87,31.86,14.65,47.62,1029.81,2027.06,2901.07,2811.93,3098.95,600.27,600.93,51.93,0000 0000 0000 0000 000000
2016-10-03 10:29:24,0.06,1.37,0.00,24.55,28.87,31.89,14.57,47.69,1029.81,2027.07,2900.34,2811.24,3098.16,600.12,600.91,51.98,0000 0000 0000 0000 000000
2016-10-03 10:34:25,0.05,1.37,0.00,24.54,28.85,31.90,14.56,47.58,1029.84,2027.03,2898.95,2810.68,3097.23,599.68,600.37,52.03,0000 0000 0000 0000 000000
2016-10-03 10:39:26,0.05,1.37,0.00,24.56,28.85,31.88,14.63,47.63,1029.89,2027.06,2897.86,2810.02,3096.39,599.64,600.42,52.08,0000 0000 0000 0000 000000
2016-10-03 10:44:27,0.03,1.37,0.00,24.57,28.85,31.86,14.54,47.66,1029.87,2027.11,2896.93,2809.88,3095.92,599.67,600.25,52.13,0000 0000 0000 0000 000000
2016-10-03 10:49:29,0.06,1.38,0.00,24.56,28.85,31.89,14.57,47.73,1029.94,2027.09,2895.61,2809.07,3094.99,599.57,600.33,52.18,0000 0000 0000 0000 000000
2016-10-03 10:54:30,0.06,1.38,0.00,24.55,28.85,31.87,14.64,47.58,1030.02,2027.10,2894.40,2808.46,3093.97,600.02,600.79,52.23,0000 0000 0000 0000 000000
2016-10-03 10:59:31,0.09,1.38,0.00,24.57,28.83,31.84,14.62,47.62,1030.09,2027.07,2892.57,2807.48,3092.76,599.93,600.78,52.28,0000 0000 0000 0000 000000
2016-10-03 11:04:32,0.10,1.39,0.00,24.59,28.82,31.86,14.62,47.73,1030.19,2027.10,2890.54,2806.30,3091.38,600.14,600.95,52.33,0000 0000 0000 0000 000000
2016-10-03 11:09:34,0.11,1.39,0.00,24.60,28.82,31.80,14.57,47.63,1030.14,2027.12,2888.43,2805.04,3089.74,600.13,600.87,52.38,0000 0000 0000 0000 000000
2016-10-03 11:14:35,0.09,1.40,0.00,24.61,28.82,31.79,14.63,47.70,1030.05,2027.26,2886.64,2804.08,3088.58,600.05,600.66,52.43,0000 0000 0000 0000 000000
2016-10-03 11:19:36,0.01,1.40,0.00,24.61,28.80,31.79,14.61,47.66,1030.12,2027.32,2885.93,2803.99,3088.01,599.95,600.77,52.48,0000 0000 0000 0000 000000
2016-10-03 11:24:37,0.04,1.40,0.00,24.62,28.80,31.78,14.65,47.68,1030.07,2027.34,2885.13,2803.82,3087.75,599.99,600.64,52.53,0000 0000 0000 0000 000000
2016-10-03 11:29:39,0.07,1.41,0.00,24.64,28.80,31.78,14.67,47.59,1030.04,2027.55,2884.48,2803.20,3087.05,600.19,600.71,52.58,0000 0000 0000 0000 000000
2016-10-03 11:34:40,0.07,1.41,0.00,24.65,28.79,31.80,14.58,47.58,1029.95,2027.64,2883.01,2802.54,3086.14,599.85,600.35,52.64,0000 0000 0000 0000 000000
2016-10-03 11:39:42,0.07,1.42,0.00,24.65,28.77,31.78,14.56,47.52,1030.09,2027.73,2881.37,2801.71,3084.92,599.72,600.32,52.69,0000 0000 0000 0000 000000
2016-10-03 11:44:43,0.06,1.42,0.00,24.63,28.77,31.71,14.57,47.59,1030.08,2027.84,2880.09,2801.02,3084.06,599.83,600.40,52.74,0000 0000 0000 0000 000000
2016-10-03 11:49:44,0.05,1.42,0.00,24.63,28.77,31.73,14.54,47.52,1030.04,2027.87,2879.14,2800.76,3083.37,599.87,600.46,52.79,0000 0000 0000 0000 000000
2016-10-03 11:54:46,0.03,1.42,0.00,24.64,28.75,31.70,14.63,47.48,1030.12,2027.89,2878.45,2800.20,3083.00,600.07,600.62,52.84,0000 0000 0000 0000 000000
2016-10-03 11:59:47,0.01,1.42,0.00,24.65,28.75,31.71,14.67,47.63,1030.08,2027.91,2877.96,2800.02,3082.63,600.06,600.58,52.89,0000 0000 0000 0000 000000
2016-10-03 12:04:48,0.03,1.43,0.00,24.68,28.75,31.72,14.57,47.52,1030.19,2027.95,2877.35,2800.01,3082.12,600.17,600.84,52.94,0000 0000 0000 0000 000000
2016-10-03 12:09:49,0.00,1.43,0.00,24.68,28.73,31.67,14.61,47.69,1030.19,2027.95,2876.99,2800.00,3082.00,599.82,600.52,52.99,0000 0000 0000 0000 000000
2016-10-03 12:14:51,0.01,1.43,0.00,24.67,28.72,31.70,14.70,47.68,1030.21,2027.97,2876.43,2800.00,3081.97,600.27,600.84,53.04,0000 0000 0000 0000 000000
2016-10-03 12:19:52,0.01,1.43,0.00,24.69,28.72,31.67,14.67,47.76,1030.20,2027.98,2876.01,2800.00,3081.64,600.27,600.78,53.09,0000 0000 0000 0000 000000
2016-10-03 12:24:53,0.01,1.43,0.00,24.66,28.71,31.64,14.66,47.53,1030.25,2027.98,2875.88,2800.00,3081.07,599.96,600.49,53.14,0000 0000 0000 0000 000000
2016-10-03 12:29:54,0.01,1.43,0.00,24.67,28.70,31.63,14.64,47.61,1030.28,2027.98,2875.12,2800.00,3081.00,600.33,600.98,53.19,0000 0000 0000 0000 000000
2016-10-03 12:34:55,-0.00,1.43,0.00,24.70,28.70,31.62,14.66,47.59,1030.28,2027.98,2875.00,2799.99,3080.98,599.97,600.71,53.24,0000 0000 0000 0000 000000
2016-10-03 12:39:57,0.01,1.43,0.00,24.69,28.69,31.62,14.65,47.71,1030.25,2027.99,2874.67,2799.99,3080.89,600.15,600.62,53.29,0000 0000 0000 0000 000000
2016-10-03 12:44:58,0.02,1.43,0.00,24.70,28.67,31.60,14.59,47.83,1030.22,2027.99,2874.04,2799.99,3080.35,599.67,600.38,53.34,0000 0000 0000 0000 000000
2016-10-03 12:49:59,0.03,1.43,0.00,24.73,28.67,31.59,14.65,47.75,1030.19,2027.99,2873.67,2799.57,3080.02,599.93,600.41,53.39,0000 0000 0000 0000 000000
2016-10-03 12:55:01,0.01,1.43,0.00,24.73,28.67,31.59,14.59,47.64,1030.21,2027.99,2873.03,2799.24,3079.90,600.15,600.69,53.44,0000 0000 0000 0000 000000